Regional Weather Roundup
Issued by NWS

Home | Current Version | Previous Version | Graphics & Text | Print | Product List | Glossary On
Versions: 1 2 3 4 5 6 7 8 9 10 11 12 13 14 15 16 17 18 19 20 21 22 23 24 25 26 27 28 29 30 31 32 33 34 35 36 37 38 39 40 41 42 43 44 45 46 47 48 49 50
000
ASUS43 KFSD 300710
RWRSD

WEATHER ROUNDUP FOR SOUTH DAKOTA
NATIONAL WEATHER SERVICE SIOUX FALLS SD
200 AM CDT TUE MAY 30 2017

NOTE: "FAIR" INDICATES FEW OR NO CLOUDS BELOW 12,000 FEET WITH NO
SIGNIFICANT WEATHER AND/OR OBSTRUCTIONS TO VISIBILITY.


SDZ001>005-009-010-012>017-300800-
NORTHWEST AND NORTH CENTRAL SOUTH DAKOTA

CITY           SKY/WX    TMP DP  RH WIND       PRES   REMARKS
BUFFALO          N/A     48  30  49 NW7       30.04S
FAITH            N/A     45  32  60 W5        30.08S
MOBRIDGE       CLEAR     46  36  68 N8        30.00S
$$

SDZ012>016-024>037-041>051-057-063-072>074-300800-
SOUTHWEST AND SOUTH CENTRAL SOUTH DAKOTA

CITY           SKY/WX    TMP DP  RH WIND       PRES   REMARKS
RAPID CTY ARPT CLEAR     41  29  62 W5        30.12S
PIERRE         CLEAR     47  36  65 W6        30.04S
CUSTER         CLEAR     41  24  51 CALM      30.19S
ELLSWORTH AFB  CLEAR     45  31  57 W7        30.11S
PHILIP         CLEAR     39  34  82 W9        30.08S
PINE RIDGE     CLEAR     39  37  92 NE3       30.13F
SPEARFISH      FAIR      43  30  61 SW3       30.15S
WINNER         FAIR      46  37  71 SW7       30.07S
$$

SDZ004>011-016>023-039-040-300800-
NORTHEAST SOUTH DAKOTA

CITY           SKY/WX    TMP DP  RH WIND       PRES   REMARKS
ABERDEEN       PTCLDY    44  37  76 CALM      29.98F
WATERTOWN      CLOUDY    51  42  71 W8        29.96S
BROOKINGS      CLOUDY    50  45  83 W6        29.98S
SISSETON         N/A     54  42  64 NW15      29.93S
$$

SDZ017-020-022-023-036>040-048>070-300800-
SOUTHEAST SOUTH DAKOTA

CITY           SKY/WX    TMP DP  RH WIND       PRES   REMARKS
SIOUX FALLS    CLOUDY    50  45  83 W3        29.99F
HURON          CLOUDY    49  40  71 W6        30.00R
CHAMBERLAIN    CLEAR     47  38  73 SW3       30.05S
MITCHELL       CLOUDY    53  42  66 W7        30.02R
YANKTON        CLOUDY    53  46  77 CALM      30.02F
$$

ABBREVIATIONS USED IN REMARKS
   TC - TEMPERATURE IN CELSIUS
  WCI - WIND CHILL INDEX
   HX - HEAT INDEX
  VSB - VISIBILITY




USA.gov is the U.S. government's official web portal to all federal, state and local government web resources and services.